Current Version              Previous Version:    01  02  03  04  05  06  07  08  09  10  11  12  13  14  15  16  17  18  19  20  21  22  23  24  25  26  27  28  29  30  
   31  32  33  34  35  36  37  38  39  40  41  42  43  44  45  46  47  48  49  50  51  52  53  54  55  56  57  58  59  60  

[Printable]
238
ASUS44 KLUB 281210
RWRTX
WEST TEXAS WEATHER ROUNDUP
NATIONAL WEATHER SERVICE LUBBOCK TX
600 AM CST FRI NOV 28 2014

NOTE: "FAIR" INDICATES FEW OR NO CLOUDS BELOW 12,000 FEET WITH NO
SIGNIFICANT WEATHER AND/OR OBSTRUCTIONS TO VISIBILITY.

TXZ004-006>008-010-012-014-016-OKZ002-281300-
TEXAS PANHANDLE/OKLAHOMA PANHANDLE

CITY           SKY/WX    TMP DP  RH WIND       PRES   REMARKS
AMARILLO       PTCLDY    39  28  64 SW12      30.07F WCI  32
BORGER         CLEAR     45  27  49 SW13      30.03F
CANADIAN       CLEAR     35  30  82 CALM      30.02F
DALHART        PTCLDY    30  24  78 SW10      30.06F WCI  21
DUMAS            N/A     38  26  64 W8        30.05S WCI  32
GUYMON         PTCLDY    37  25  61 W8        29.99S WCI  31
HEREFORD       CLEAR     38  30  72 S12       30.09F WCI  31
PAMPA          CLEAR     42  28  58 W14       30.02F
PERRYTON       CLEAR     36  28  73 SW8       29.99F WCI  30
$$

TXZ026-029-035-045-048-281300-
SOUTHERN PANHANDLE/SOUTH PLAINS/ROLLING PLAINS

CITY           SKY/WX    TMP DP  RH WIND       PRES   REMARKS
CHILDRESS      CLEAR     37  31  78 S9        30.09F WCI  30
SEMINOLE       PTCLDY    35  31  86 CALM      30.18F
LUBBOCK        PTCLDY    41  30  65 SW14      30.14S
PLAINVIEW      CLEAR     35  30  83 SW9       30.10F WCI  27
SNYDER         CLEAR     37  32  83 S8        30.19F WCI  31
$$

TXZ052-054-060>062-072-078-127-140-154-169-281300-
PERMIAN BASIN/CONCHO VALLEY/BIG COUNTRY/EDWARDS PLATEAU

CITY           SKY/WX    TMP DP  RH WIND       PRES   REMARKS
ABILENE        CLEAR     48  35  60 S12G24    30.20F
BIG SPRING     CLEAR     43  33  67 S8        30.22S
BRADY          CLEAR     41  34  75 S6        30.24S
BROWNWOOD      MOCLDY    34  32  93 CALM      30.26S
JUNCTION       CLOUDY    42  37  82 W5        30.27F
MIDLAND        PTCLDY    42  34  73 S5        30.19F
ODESSA         CLEAR     43  34  70 SW9       30.20F
SAN ANGELO     CLEAR     49  43  80 S16       30.22F
SONORA         CLOUDY    50  46  87 S10G16    30.30F
SWEETWATER     CLEAR     45  35  67 S12       30.21S
WINK           PTCLDY    36  30  79 SE6       30.18F WCI  31
$$

TXZ055-058-074-075-080-082-281300-
FAR WEST/SOUTHWEST MOUNTAINS/TRANS PECOS

CITY           SKY/WX    TMP DP  RH WIND       PRES   REMARKS
ALPINE         PTCLDY    49  23  35 SW15      30.30F
DRYDEN           N/A     39  34  82 N5        30.24F
EL PASO        PTCLDY    38  21  50 N8        30.25S WCI  32
FORT STOCKTON  CLEAR     42  28  57 S8        30.19F
MARFA          PTCLDY    23  18  80 N5        30.30F WCI  17
PECOS          PTCLDY    31  26  81 CALM      30.19F
PRESIDIO       FAIR      42  28  57 CALM      30.27S
$$

TXZ014-016-019-021>030-083-281300
TEXAS TECH WEST TEXAS MESONET/TEXAS PANHANDLE/NORTHERN SOUTH PLAINS

CITY           SKY/WX    TMP DP  RH WIND       PRES   REMARKS
ABERNATHY 5ENE   N/A     36  30  78 SW9       30.14F WCI  29
AMARILLO 9NNE    N/A     34  27  74 S7        30.06F WCI  28
AMARILLO 7SSE    N/A     38  28  67 SW14      30.08F WCI  30
AMHERST 1NE      N/A     38  28  66 SW12      30.13F WCI  31
BOOTLEG 11WNW    N/A     41  24  50 W12       30.12S
CANADIAN 6E      N/A     35  29  77 S7        30.01F WCI  29
CAPROCK CYN SP   N/A     47  29  49 W30       30.06S
CHILDRESS 2NNE   N/A     36  32  83 S10       30.08F WCI  29
CLARENDON 2WSW   N/A     45  29  52 SW15      30.04F
DIMMITT 2NE      N/A     39  27  62 SW16      30.11S WCI  31
FLOYDADA 2NNE    N/A     37  29  74 SW10      30.12F WCI  30
FRIONA 2NE       N/A     36  27  68 SW8       30.12S WCI  30
GOODLETT 3W      N/A     33  29  85 S6        30.10F WCI  28
HART 3N          N/A     31  27  83 SW12      30.11F WCI  22
HEREFORD 2NW     N/A     36  26  69 SW9       30.09F WCI  29
MCLEAN 1E        N/A     36  30  77 SW10      30.02F WCI  29
MEMPHIS 1NE      N/A     27  25  91 CALM      30.08S
MULESHOE 2SSW    N/A     29  25  86 SW7       30.13F WCI  21
OLTON 6S         N/A     36  28  74 SW12      30.12F WCI  27
PALO DURO SP     N/A     42  28  56 SW10      30.09S
PAMPA 2E         N/A     39  29  66 SW8       30.02F WCI  34
PLAINVIEW 1S     N/A     31  28  86 SW6       30.11F WCI  26
SILVERTON 7ESE   N/A     37  28  72 SW14      30.10S WCI  28
TULIA 2ENE       N/A     36  28  73 SW10      30.11S WCI  28
TURKEY 2WSW      N/A     45  30  57 W12       30.08S
UMBARGER 3NNE    N/A     33  24  71 SW6       30.10S WCI  27
$$

TXZ033>036-039>041-045>048-281300
TEXAS TECH WEST TEXAS MESONET/SOUTH PLAINS

CITY           SKY/WX    TMP DP  RH WIND       PRES   REMARKS
AIKEN 3WSW       N/A     30  27  88 SW9       30.13F WCI  21
ANDREWS 2NE      N/A     41  33  73 S8        30.19F
ANTON 6SSW       N/A     37  29  73 SW7       30.15S WCI  32
BROWNFIELD 2S    N/A     35  29  80 SW10      30.16F WCI  27
DENVR CTY 7WNW   N/A     35  28  74 SW12      30.16F WCI  27
GAIL 2ESE        N/A     36  32  86 SW8       30.18F WCI  29
LAMESA 2SE       N/A     34  32  90 SW6       30.19S WCI  29
LEVELLAND 4S     N/A     35  28  75 SW7       30.15F WCI  29
LUBBOCK 3WNW     N/A     41  30  64 SW9       30.16R
MORTON 1ENE      N/A     38  28  68 SW6       30.15F WCI  33
ODONNELL 1N      N/A     34  31  87 SW7       30.17F WCI  28
PLAINS 3N        N/A     30  25  81 W7        30.16F WCI  24
RALLS 1SE        N/A     42  32  66 SW14      30.14F
REESE CENTER     N/A     37  29  73 SW12      30.15S WCI  30
SEAGRAVES 1SW    N/A     32  29  86 SW6       30.17F WCI  27
SEMINOLE 2NNE    N/A     35  30  83 SW7       30.17F WCI  29
SLATON 2NE       N/A     42  33  70 SW15      30.15R
SNYDER 3E        N/A     39  34  81 S10       30.18F WCI  33
SUNDOWN 8SW      N/A     31  26  83 SW7       30.16S WCI  24
TAHOKA 3NNE      N/A     38  31  76 SW13      30.15F WCI  30
WOLFFORTH 6SSW   N/A     38  30  73 SW12      30.16S WCI  31
$$

TXZ031-032-036>038-042>044-281300-
TEXAS TECH WEST TEXAS MESONET/ROLLING PLAINS

CITY           SKY/WX    TMP DP  RH WIND       PRES   REMARKS
ASPERMONT 3NE    N/A     44  35  70 SW7       30.17R
GRAHAM 5SSW      N/A     40  33  74 SW7       30.16F
GUTHRIE 10WSW    N/A     42  33  71 SW10      30.13S
HASKELL 1NW      N/A     43  34  71 S12       30.16F
JAYTON 1SSE      N/A     38  33  82 S7        30.16S WCI  32
KNOX CITY 3NW    N/A     34  31  86 S5        30.17S WCI  30
LK A HENRY 1NW   N/A     46  35  64 SW12      30.15F
NORTHFIELD 1S    N/A     44  32  61 SW5       30.09F
ODELL 4ENE       N/A     40  33  76 S12       30.13F WCI  33
PADUCAH 10SW     N/A     49  34  56 SW22      30.09F
POST 1NE         N/A     43  34  68 SW13      30.14F
RRING SPRGS 3N   N/A     46  33  62 SW18      30.09F
SEYMOUR 3NW      N/A     38  33  81 S8        30.16S WCI  32
SPUR 1W          N/A     40  33  75 SW8       30.15R WCI  35
WEINERT 2NNE     N/A     35  31  88 S2        30.17S
WHITE RVR 6NE    N/A     44  33  63 S8        30.13F
$$

TXZ052-054-060>062-072-078-127-140-154-169-281300-
TEXAS TECH WEST TEXAS MESONET/PERMIAN BASIN/
CONCHO VALLEY/BIG COUNTRY/EDWARDS PLATEAU

CITY           SKY/WX    TMP DP  RH WIND       PRES   REMARKS
COYANOSA 2N      N/A     31  26  84 N2        30.19S
JUNCTION 1SSW    N/A     42  38  84 S1        30.28S
MERTZON 3NNE     N/A     46  42  86 S13       30.23S
SAN ANGELO 7NW   N/A     45  38  75 SW7       30.23F
STRLNG CT 4WSW   N/A     46  39  77 S12       30.21F
ST LAWRNCE 5SW   N/A     43  36  75 S10       30.21S
SWEETWATR 11SW   N/A     45  36  71 S10       30.20F
WALL 1E          N/A     48  42  80 S12       30.23F
$$

TXZ055-058-074-075-080-082-281300-
TEXAS TECH WEST TEXAS MESONET/FAR WEST/SOUTHWEST MOUNTAINS/TRANS PECOS

CITY           SKY/WX    TMP DP  RH WIND       PRES   REMARKS
PRSMN GAP BBNP   N/A     36  31  81 SW5       30.28S WCI  32
GUADLPE MTN NP   N/A     57  11  16 W21       30.24S
$$